Location: Little Maitland River
(43.8022°N, 81.1549°W)
Time: 02:55:06
(UTC+00:00)

USA 238 - Pass Details

Date: 09 December 2025
Orbit: 883 x 1328 km, 63.4° (Epoch: 10 January)

Event Time Altitude Azimuth Distance (km) Brightness Sun altitude
Rises 00:16:03 0° 215° (SW) 3,503 7.0 -26.0°
Reaches altitude 10° 00:18:28 10° 216° (SW) 2,594 6.2 -26.4°
Maximum altitude 00:24:29 89° 301° (WNW) 971 3.4 -27.5°
Enters shadow 00:25:30 66° 33° (NNE) 1,062 3.4 -27.7°
